Regional Weather Roundup
Issued by NWS Kansas City/Pleasant Hill, MO

Home | Current Version | Previous Version | Text Only | Print | Product List | Glossary On
Versions: 1 2 3 4 5 6 7 8 9 10 11 12 13 14 15 16 17 18 19 20 21 22 23 24 25 26 27 28 29 30 31 32 33 34 35 36 37 38 39 40 41 42 43 44 45 46 47 48 49 50
000
ASUS43 KEAX 250111
RWREAX

WEATHER ROUNDUP FOR EASTERN KANSAS AND NORTHWEST MISSOURI
NATIONAL WEATHER SERVICE KANSAS CITY/PLEASANT HILL MO
800 PM CDT THU APR 24 2014

KSZ040-057-103>105-MOZ028-029-037-043-250200-
...KANSAS CITY METROPOLITAN AREA...

CITY           SKY/WX    TMP DP  RH WIND       PRES   REMARKS
K.C. INTL      CLOUDY    57  48  72 NW7       29.80R
K.C. DOWNTOWN  CLOUDY    58  48  69 NW5       29.79R
LEES SUMMIT    MOCLDY    57  46  66 NW14      29.79R
OLATHE - IXD   CLOUDY    56  47  71 NW12      29.81R
OLATHE - OJC   CLOUDY    56  47  71 NW12      29.79R
LAWRENCE       CLOUDY    59  46  62 NW9       29.82R

$$

MOZ001>008-011>017-020>025-030>033-038>040-044>046-053-054-250200-
...NORTHERN AND CENTRAL MISSOURI...

CITY           SKY/WX    TMP DP  RH WIND       PRES   REMARKS
ST. JOSEPH     CLOUDY    55  47  74 NW5       29.81R
MOSBY          FAIR      55  48  76 NW8       29.79R
WARRENSBURG    CLOUDY   N/A N/A N/A NW15G23   29.76R
WHITEMAN AFB   CLOUDY    56  47  71 NW14G21   29.73R
CLINTON        CLOUDY    57  52  82 NW13      29.75R
SEDALIA        CLOUDY    56  51  84 NW15G25   29.73R
WARSAW         NOT AVBL
MARSHALL       LGT RAIN  57  54  88 NW16G26   29.73R
CHILLICOTHE      N/A     54  47  77 NW9G18    29.76R
MOBERLY        DRIZZLE   57  52  82 W13       29.68
KIRKSVILLE     CLOUDY    53  51  93 NW18G26   29.70R

$$

MOZ041-047>049-056>058-063>065-088>090-097-250200-
...EASTERN AND SOUTHERN MISSOURI...

CITY           SKY/WX    TMP DP  RH WIND       PRES   REMARKS
ST. LOUIS INTL RAIN      59  55  87 NW5       29.66S FOG
SPIRIT OF STL  LGT RAIN N/A N/A N/A CALM      29.63F
COLUMBIA       CLOUDY    58  57  97 W12       29.66S
JEFFERSON CITY CLOUDY    59  57  93 NW3       29.66S
HANNIBAL       DRIZZLE   59  55  88 W8        29.63S
ROLLA          CLOUDY    56  54  93 CALM      29.63F
LEBANON        RAIN      57  54  88 W7        29.70R
OSAGE BEACH    CLOUDY    57  55  94 W7        29.69R
SPRINGFIELD    CLOUDY    57  53  86 NW21      29.74R
BRANSON        LGT RAIN  57  55  94 W14G21    29.74
NEVADA         CLOUDY    57  48  72 NW16      29.80R
JOPLIN         CLOUDY    58  49  72 NW10      29.81R
WEST PLAINS    CLOUDY    64  57  78 S5        29.67R
MALDEN         TSTM      64  63  94 S12       29.69R

$$

IAZ060-094-KSZ022-034>040-054-083-096-NEZ052-066-093-250200-
...KANSAS...SOUTHEAST NEBRASKA AND IOWA...

CITY           SKY/WX    TMP DP  RH WIND       PRES   REMARKS
TOPEKA         PTCLDY    61  45  55 N3        29.82R
MANHATTAN      CLEAR     60  44  55 CALM      29.82R
EMPORIA        CLEAR     59  40  49 N6        29.84R
CHANUTE        MOCLDY    61  47  59 NW14      29.85R
WICHITA        PTCLDY    64  35  34 NE8       29.86R
OMAHA          CLOUDY    63  41  44 CALM      29.76R
LINCOLN        PTCLDY    62  39  42 SE5       29.77S
FALLS CITY     CLOUDY    59  49  69 SW5       29.79R
LAMONI         CLOUDY    51  47  86 NW6       29.76R
DES MOINES     CLOUDY    54  45  71 N6        29.73R

$$




USA.gov is the U.S. government's official web portal to all federal, state and local government web resources and services.